Temperature
30 31 31 31 31 31 31 30 30 30 30 29 29 28 28 28 27 26 25 24 23 22 21 21 20 19 19 18 18 18 17 17 17 17 17 17 16 16 16 16 16 16 16 16
28 30 31 31 31 31 31 31 31 31 30 30 29 28 28 28 27 26 25 24 23 22 21 20 19 19 19 18 18 18 17 17 17 17 17 16 16 16 16 16 16 15 15 15
27 29 29 29 31 31 31 31 31 30 30 30 28 28 27 27 26 25 25 24 22 21 20 20 19 18 18 18 18 17 17 17 17 16 16 16 16 16 15 15 15 15 15 15
26 27 26 29 32 32 31 31 31 31 30 29 28 26 26 26 26 25 24 23 22 21 20 19 19 18 18 18 17 17 17 16 16 16 16 16 15 15 15 15 15 15 15 14
26 26 27 29 31 31 30 30 31 30 29 28 26 26 25 25 24 23 23 22 21 20 20 19 18 18 18 17 17 17 16 16 16 16 15 15 15 15 15 15 14 14 14 14
25 25 26 28 30 31 30 28 29 29 28 27 26 26 24 23 22 22 21 21 20 20 19 18 18 17 17 17 17 16 16 16 16 15 15 15 15 15 14 14 14 14 13 13
24 25 26 28 29 29 27 26 27 27 27 26 25 24 22 21 21 20 20 20 19 19 18 18 17 17 17 16 16 16 16 15 15 15 15 14 14 14 14 14 13 13 13 12
24 24 25 27 28 26 24 25 25 24 24 23 22 21 21 20 19 19 19 19 18 18 17 17 17 17 16 16 16 16 15 15 15 15 14 14 14 13 13 13 13 12 12 12
24 24 24 24 24 24 24 24 24 23 22 22 21 20 20 19 19 18 18 18 17 17 16 16 16 16 16 15 15 15 15 15 14 14 13 13 13 13 13 12 12 12 11 11
23 23 23 23 23 23 23 22 22 22 22 21 21 20 19 18 18 18 17 17 16 16 15 15 15 15 15 15 15 14 14 14 13 13 13 12 12 12 12 12 12 11 11 10
22 22 22 21 21 21 21 21 21 21 21 20 20 19 18 17 17 16 16 15 15 15 15 14 14 14 14 14 14 14 13 13 13 12 12 12 12 12 11 11 11 11 11 10
20 21 21 20 20 20 20 20 20 20 20 19 19 18 17 16 16 15 15 14 14 14 13 13 13 13 13 13 13 13 13 12 12 12 11 11 11 11 10 10 10 10 10 10
20 19 19 19 19 19 19 19 19 18 18 17 17 16 16 15 14 14 13 13 13 12 12 12 12 12 12 12 12 12 12 12 11 11 11 10 10 10 9 9 9 9 9 8
19 19 19 19 19 18 18 18 18 17 16 16 15 15 14 14 13 13 12 12 12 12 12 12 11 11 11 11 11 11 11 11 11 10 10 10 10 9 9 9 8 8 7 7
19 19 18 18 18 18 17 17 17 16 15 14 14 13 13 12 12 11 11 11 11 11 11 11 11 11 10 11 11 11 11 10 10 10 9 9 9 8 8 8 8 7 7 6
18 18 18 17 17 17 17 16 16 15 14 13 12 12 12 11 11 10 10 10 10 10 10 10 10 10 10 10 10 10 10 10 10 9 9 8 8 8 8 7 7 7 6 6
17 17 17 17 17 16 16 15 14 13 13 12 11 11 11 10 10 10 9 9 9 9 9 9 9 9 9 9 9 9 9 9 9 9 9 8 8 8 7 7 7 6 6 6
17 17 17 16 16 15 14 14 13 12 11 11 10 10 10 9 9 9 9 9 9 9 9 9 9 9 9 9 9 9 9 8 9 8 8 8 8 8 7 7 7 6 6 6
16 16 16 15 15 14 13 12 12 11 10 10 9 9 9 9 9 9 8 8 8 8 8 8 8 8 8 8 9 9 9 9 8 8 8 8 8 7 7 7 7 6 6 6
15 15 15 14 13 13 12 11 11 10 10 9 9 9 9 8 8 8 8 8 8 8 8 8 8 8 8 8 8 9 9 8 8 8 8 8 8 7 7 7 7 6 6 6
14 14 13 13 12 12 11 11 10 9 9 9 9 8 8 8 8 8 8 8 8 8 8 8 8 8 8 8 9 9 9 8 8 8 8 8 7 7 7 7 7 7 6 6
13 12 12 12 11 11 10 10 10 9 9 8 8 8 8 8 8 8 8 8 8 8 8 8 8 8 8 9 9 9 9 8 8 8 8 8 8 8 7 7 7 7 7 7
11 11 11 11 10 10 10 9 9 9 9 9 9 9 9 9 9 9 8 8 8 8 8 8 8 9 8 9 9 9 9 9 8 8 8 8 8 8 8 8 8 7 7 7
10 10 10 10 10 10 9 9 9 9 9 9 9 9 9 9 9 9 9 8 8 8 8 9 9 9 9 9 9 9 9 9 9 9 9 8 8 8 8 8 8 8 8 7
10 10 10 10 9 9 9 9 9 9 9 9 9 9 9 9 9 9 9 8 8 8 8 9 9 9 9 9 9 9 9 9 9 9 9 9 9 9 8 8 8 8 8 8
9 9 9 10 10 9 9 9 9 9 9 9 9 9 9 9 9 9 9 8 8 8 8 8 9 9 9 9 9 9 9 9 9 9 9 9 9 9 9 8 8 8 8 8
9 9 9 9 9 10 10 10 10 9 9 9 9 9 9 9 9 9 9 9 8 8 8 8 8 8 9 9 9 9 9 9 9 9 9 9 9 9 9 8 8 8 8 8
Wind_Speed
18 18 14 13 15 16 17 15 14 11 9 5 6 7 8 9 10 12 12 11 10 9 8 7 7 6 6 5 5 5 5 5 5 5 4 4 4 5 5 5 6 5 5 5
18 20 19 17 15 15 16 15 15 14 10 4 6 7 8 10 12 12 12 11 10 10 9 8 7 6 6 5 5 5 5 5 5 5 5 5 5 5 5 5 5 6 6 6
16 17 19 20 16 15 14 14 14 13 7 5 6 7 6 7 10 11 11 11 10 9 8 7 7 6 5 5 5 5 5 5 6 6 5 5 6 6 6 6 7 8 7 8
15 17 19 14 13 14 14 13 10 5 3 3 8 9 5 5 8 11 11 10 9 8 9 8 7 7 5 5 5 5 5 6 6 6 6 6 6 6 6 6 7 7 8 8
13 17 18 16 12 11 11 10 7 5 2 5 10 9 5 5 8 9 10 9 8 7 8 7 7 6 6 5 5 5 5 6 6 6 6 6 6 6 6 7 7 8 9 9
13 15 15 9 7 8 8 8 3 3 3 7 7 6 5 7 8 10 9 8 8 7 7 6 5 6 6 5 5 5 5 6 6 6 7 7 7 7 7 8 8 9 9 9
17 17 13 8 4 3 7 2 6 6 5 6 4 5 10 11 10 10 8 8 7 7 6 5 4 5 5 5 4 4 5 6 7 7 6 7 7 7 8 8 9 10 10 9
16 18 13 6 3 1 4 7 9 10 11 12 12 12 12 10 9 8 8 7 7 6 6 5 4 4 5 4 4 5 6 7 7 7 6 7 8 8 9 9 10 10 10 10
8 6 4 7 7 6 6 6 6 8 9 10 10 10 10 9 7 6 7 6 5 5 5 5 4 4 5 4 5 6 7 7 8 8 7 7 8 9 8 8 8 8 9 9
2 4 5 6 6 6 6 7 7 7 7 7 7 8 8 7 6 6 6 5 4 5 5 5 4 4 4 4 5 7 8 8 8 9 9 8 6 6 7 7 8 8 9 9
4 4 4 3 4 5 5 6 6 6 6 6 6 7 7 5 5 5 5 4 5 5 5 4 4 4 4 5 6 7 8 8 9 9 9 9 9 8 7 5 5 8 8 9
1 2 2 4 5 5 4 5 6 5 6 6 6 6 5 5 5 5 5 5 5 5 4 4 4 4 3 4 5 7 8 8 8 8 8 10 11 11 18 14 16 15 14 12
2 3 3 4 3 4 4 4 5 5 5 6 5 5 6 6 5 6 6 6 5 5 5 5 5 4 4 5 6 7 8 8 8 9 9 10 10 11 11 13 18 18 16 16
3 1 2 2 3 3 3 4 5 5 5 5 5 6 6 7 7 6 6 5 5 5 5 6 6 5 5 6 8 8 9 9 9 8 9 9 10 10 10 11 10 9 11 14
2 1 2 2 4 4 4 4 5 5 6 6 6 6 6 7 7 6 6 6 6 6 6 6 6 6 6 7 8 9 8 8 8 9 9 10 10 10 10 11 10 10 8 8
3 3 4 4 3 4 4 4 4 5 5 6 6 6 7 8 7 7 6 6 6 6 6 7 7 7 7 8 8 8 8 12 11 9 10 9 9 10 10 10 10 10 9 9
5 6 5 5 4 4 4 4 5 6 6 7 7 7 8 9 8 7 7 7 8 8 7 7 8 8 8 8 9 8 9 10 12 10 9 9 9 10 10 10 10 9 9 9
6 6 5 5 5 5 5 5 6 7 8 8 9 8 8 8 8 8 8 8 9 8 7 7 8 8 8 8 8 9 9 8 8 8 8 8 9 9 9 9 10 10 9 9
6 6 4 4 5 6 7 7 8 8 9 9 9 9 9 9 9 9 9 9 8 8 6 7 8 8 8 8 8 7 8 9 8 8 8 9 9 9 9 9 9 9 9 8
4 3 5 6 7 8 9 9 10 10 10 10 11 10 10 10 9 9 9 8 6 7 8 8 8 8 8 7 7 7 8 9 10 9 8 8 8 8 8 9 9 9 8 8
4 6 8 8 9 9 10 11 11 11 11 11 11 11 11 10 9 8 8 8 7 8 8 8 6 6 6 6 5 7 8 9 9 8 8 7 7 7 7 7 8 8 8 8
6 8 9 9 10 10 9 10 11 11 11 10 11 11 10 9 8 7 7 7 8 8 7 7 6 7 7 5 5 6 7 8 7 7 7 7 7 7 7 7 7 7 7 7
8 9 9 9 10 10 11 10 11 11 10 10 10 10 9 7 7 7 8 7 7 6 4 6 8 9 6 3 4 6 7 7 7 6 6 6 7 6 7 7 7 7 7 7
9 9 9 10 11 11 11 11 10 9 9 9 8 8 7 7 6 6 8 8 8 7 5 8 9 6 2 3 4 5 6 6 6 6 6 6 6 7 7 7 7 7 7 7
9 9 9 10 10 9 10 10 9 9 9 8 8 7 6 5 6 8 8 9 9 8 7 6 5 3 2 3 4 4 5 4 4 5 5 5 5 6 6 6 6 6 7 7
9 8 7 7 7 7 8 8 7 7 7 7 6 5 5 5 7 8 7 8 9 7 6 6 5 4 4 4 4 4 4 5 5 4 4 4 5 5 5 7 8 7 6 6
9 8 7 7 7 6 7 7 7 7 6 7 6 5 6 6 6 6 6 7 7 6 5 6 6 6 6 5 5 5 5 5 5 5 5 5 4 4 5 6 5 6 6 6
Wind_Direction
258 268 262 248 237 235 235 243 255 259 265 220 181 154 155 155 152 147 150 149 149 148 139 138 138 143 145 148 148 150 151 156 150 145 142 142 139 143 144 149 153 146 138 131
254 259 262 256 243 239 240 241 249 257 261 214 160 150 160 162 159 155 156 153 151 146 144 145 146 150 145 144 145 143 147 147 141 138 137 139 140 138 134 132 128 122 118 118
256 255 255 251 247 246 248 245 246 254 239 184 162 139 152 166 160 152 153 149 146 146 148 147 148 146 144 143 144 146 148 149 145 138 135 134 135 128 125 124 119 114 113 112
247 256 255 256 257 252 252 257 255 237 194 145 124 115 131 160 150 144 144 142 141 145 145 144 146 144 140 142 148 152 151 149 148 143 138 132 127 126 125 123 119 118 115 114
243 245 247 252 258 255 250 249 256 256 151 125 122 125 123 101 118 124 128 129 132 135 134 134 138 139 142 146 150 154 152 145 145 143 139 134 130 130 129 127 124 121 120 120
244 250 251 250 268 268 254 239 295 276 164 148 159 184 141 117 110 110 111 115 121 121 117 117 121 135 142 146 145 146 143 138 132 133 135 133 129 123 119 122 121 118 113 111
238 247 253 276 292 266 244 262 28 39 75 124 93 91 113 109 101 105 106 109 110 112 112 110 114 126 134 132 139 138 132 132 128 128 129 127 121 117 118 117 115 111 107 101
231 242 245 330 272 222 73 56 54 67 80 89 95 101 105 104 108 117 120 113 111 108 105 98 102 120 130 131 128 123 124 124 122 120 123 126 123 120 119 119 118 116 111 103
223 233 83 57 66 67 83 80 72 86 94 104 109 117 116 116 123 123 114 111 107 107 101 92 88 107 125 125 128 126 124 124 121 118 112 115 121 125 124 123 123 124 120 115
202 134 102 85 81 66 72 79 79 89 100 105 114 119 121 129 125 116 109 108 104 103 99 91 82 93 106 124 123 121 123 123 121 118 112 105 105 111 116 125 130 129 128 127
217 158 117 88 79 81 89 101 99 94 97 99 106 114 118 122 116 110 101 92 94 95 92 87 83 87 99 118 122 124 122 123 120 118 117 102 85 70 88 84 119 134 135 135
264 55 89 121 131 116 106 106 104 94 88 83 93 109 110 105 100 101 99 93 91 94 99 96 93 89 94 115 127 130 128 127 127 125 119 114 104 83 60 68 73 81 93 106
43 53 86 102 104 99 107 105 97 93 92 93 86 88 95 98 99 100 97 94 96 98 101 101 102 100 96 106 119 128 131 132 130 128 126 125 122 115 103 76 68 72 84 96
67 66 146 154 146 130 123 111 107 102 95 97 98 98 102 105 104 100 97 96 99 101 99 99 102 102 103 110 115 117 120 120 125 128 129 128 126 124 122 119 110 92 82 94
266 232 228 178 144 144 138 139 128 118 109 105 105 109 111 110 107 102 98 98 102 104 101 101 102 98 102 113 117 120 122 125 123 124 124 126 128 126 124 122 120 119 118 107
246 226 204 187 178 168 159 154 138 126 119 113 110 109 108 107 106 102 100 104 110 106 103 103 104 105 107 114 115 117 117 123 125 125 126 130 133 131 129 130 131 134 137 138
236 233 213 201 190 176 156 145 137 129 126 123 120 116 115 113 110 107 102 100 101 101 102 105 110 115 113 116 119 120 122 124 124 124 129 134 135 134 135 136 138 141 142 148
239 244 237 207 179 158 147 137 130 129 129 126 126 125 126 127 126 123 119 114 108 101 99 106 113 118 120 123 121 122 126 132 136 132 133 133 131 132 134 136 140 142 144 157
231 235 215 172 154 143 141 136 130 127 125 127 128 128 128 127 125 126 125 121 118 115 114 114 118 122 121 124 126 131 134 132 128 124 124 125 133 136 138 141 145 147 152 162
207 192 159 139 134 132 130 127 124 124 128 129 128 126 126 127 129 129 125 120 119 123 131 133 134 128 129 131 132 133 129 129 129 130 133 141 141 139 144 149 151 156 161 166
153 138 131 126 122 123 125 127 129 128 129 130 130 129 128 129 133 134 129 122 121 127 131 133 138 138 137 133 138 138 135 136 138 141 144 145 148 151 151 153 158 163 166 172
119 120 119 121 121 121 126 129 130 130 128 132 134 134 134 136 139 135 124 125 133 135 145 150 145 132 131 142 153 144 140 140 142 145 149 152 155 157 160 164 169 171 173 179
116 117 119 120 121 123 123 126 129 132 134 139 143 145 146 147 147 138 130 132 143 149 156 137 123 119 116 175 165 149 144 144 148 155 159 163 166 167 169 175 179 178 180 187
116 121 123 124 124 125 126 129 131 135 138 140 143 147 147 142 136 130 126 129 127 134 124 118 125 127 155 195 169 150 146 150 160 169 172 174 175 176 178 183 186 186 189 193
114 116 121 125 127 129 131 133 132 133 134 133 135 139 140 134 129 124 126 130 132 131 130 138 146 167 214 199 175 158 155 162 173 182 181 180 185 184 182 188 192 195 197 199
105 109 113 115 116 125 132 133 133 134 132 129 131 134 124 113 115 122 131 141 145 146 150 157 175 204 219 211 195 186 178 171 181 198 196 195 199 198 195 197 199 201 202 204
98 101 103 103 107 114 120 124 124 126 130 133 130 124 122 125 129 138 144 150 159 169 174 180 191 206 218 217 207 205 205 200 204 202 199 207 210 213 213 208 209 210 208 212
Height
1443 1437 1436 1439 1440 1440 1445 1448 1454 1453 1451 1449 1449 1452 1456 1460 1464 1468 1473 1478 1481 1485 1487 1491 1493 1496 1498 1500 1501 1503 1505 1506 1507 1509 1510 1511 1513 1514 1516 1518 1520 1522 1525 1528
1447 1439 1436 1437 1435 1436 1438 1440 1443 1444 1447 1443 1446 1451 1455 1459 1463 1468 1472 1476 1481 1484 1487 1490 1493 1495 1497 1499 1500 1502 1503 1505 1506 1508 1509 1510 1512 1513 1515 1517 1519 1521 1523 1526
1454 1442 1440 1445 1434 1434 1434 1433 1437 1443 1443 1443 1447 1452 1456 1460 1463 1467 1471 1476 1480 1484 1487 1489 1492 1494 1496 1497 1499 1500 1502 1503 1505 1506 1508 1509 1511 1512 1514 1516 1518 1520 1522 1525
1453 1452 1463 1439 1423 1424 1429 1431 1431 1435 1438 1442 1447 1453 1459 1461 1464 1467 1471 1476 1480 1483 1486 1489 1491 1493 1495 1496 1498 1499 1501 1502 1503 1505 1507 1508 1509 1511 1513 1515 1517 1519 1521 1523
1452 1455 1450 1435 1426 1425 1431 1434 1432 1434 1439 1444 1449 1454 1460 1463 1465 1468 1472 1475 1479 1482 1485 1488 1490 1492 1493 1495 1497 1498 1499 1500 1502 1503 1505 1506 1508 1509 1511 1513 1515 1517 1520 1522
1453 1458 1456 1438 1426 1425 1430 1439 1435 1436 1440 1445 1449 1454 1461 1465 1467 1469 1472 1476 1479 1482 1484 1486 1488 1490 1492 1493 1495 1496 1498 1499 1500 1502 1504 1505 1506 1508 1510 1512 1514 1516 1518 1521
1453 1454 1444 1431 1428 1431 1446 1448 1441 1440 1442 1446 1451 1455 1462 1465 1469 1471 1474 1477 1479 1482 1484 1485 1487 1489 1490 1492 1493 1495 1496 1497 1498 1500 1502 1504 1505 1507 1509 1511 1513 1515 1517 1520
1449 1454 1451 1434 1432 1438 1446 1445 1445 1447 1449 1452 1456 1459 1463 1466 1470 1473 1476 1478 1480 1481 1483 1484 1486 1487 1488 1490 1492 1493 1495 1496 1497 1499 1501 1503 1504 1506 1509 1511 1513 1515 1517 1520
1440 1444 1442 1440 1442 1444 1445 1447 1449 1451 1454 1456 1459 1463 1465 1468 1472 1475 1477 1479 1480 1481 1482 1483 1484 1485 1486 1488 1489 1491 1492 1494 1496 1498 1500 1501 1503 1506 1508 1511 1513 1515 1517 1519
1438 1440 1441 1443 1445 1447 1448 1451 1452 1454 1456 1459 1462 1464 1466 1469 1473 1475 1477 1478 1479 1480 1481 1482 1483 1483 1485 1486 1487 1489 1490 1493 1495 1497 1499 1501 1504 1506 1508 1510 1512 1514 1517 1519
1439 1441 1443 1446 1448 1450 1452 1453 1455 1457 1458 1461 1463 1466 1468 1470 1473 1474 1476 1477 1478 1479 1480 1480 1481 1482 1483 1484 1485 1487 1489 1491 1494 1496 1498 1500 1503 1505 1508 1510 1513 1515 1517 1519
1444 1444 1445 1448 1451 1452 1453 1455 1457 1459 1460 1462 1464 1467 1469 1471 1473 1474 1475 1476 1477 1478 1478 1479 1480 1480 1481 1482 1484 1485 1487 1489 1492 1495 1497 1499 1502 1504 1508 1511 1513 1515 1517 1520
1444 1445 1448 1450 1452 1453 1455 1456 1458 1460 1462 1463 1465 1467 1468 1470 1472 1473 1474 1475 1476 1476 1477 1477 1478 1479 1480 1481 1482 1484 1486 1488 1491 1494 1496 1499 1501 1504 1507 1511 1514 1516 1519 1521
1445 1447 1448 1451 1452 1454 1456 1457 1459 1461 1462 1464 1465 1467 1468 1469 1470 1472 1473 1474 1475 1476 1476 1477 1477 1478 1479 1480 1481 1483 1485 1488 1491 1493 1496 1499 1502 1504 1508 1511 1513 1516 1520 1523
1447 1448 1450 1451 1453 1454 1456 1458 1459 1461 1463 1464 1465 1467 1468 1469 1470 1471 1473 1474 1475 1475 1476 1477 1477 1478 1479 1480 1482 1483 1486 1489 1491 1494 1497 1500 1503 1506 1509 1512 1515 1517 1521 1524
1447 1448 1450 1451 1452 1454 1456 1458 1459 1461 1463 1464 1465 1466 1467 1468 1470 1471 1472 1474 1475 1475 1476 1477 1478 1479 1480 1481 1482 1484 1487 1490 1492 1495 1498 1501 1504 1507 1510 1513 1516 1519 1522 1525
1446 1448 1449 1451 1453 1454 1456 1458 1459 1461 1462 1464 1465 1466 1467 1468 1470 1471 1473 1474 1475 1476 1477 1478 1479 1480 1481 1483 1484 1486 1488 1491 1494 1497 1500 1503 1506 1509 1512 1515 1518 1521 1524 1527
1445 1447 1448 1450 1452 1454 1456 1457 1459 1460 1462 1463 1464 1466 1467 1469 1470 1472 1474 1475 1476 1477 1479 1480 1481 1483 1484 1485 1487 1489 1491 1493 1497 1499 1502 1505 1507 1510 1514 1517 1520 1523 1526 1529
1443 1445 1447 1448 1451 1452 1454 1456 1458 1460 1461 1463 1464 1466 1468 1470 1471 1473 1475 1476 1478 1479 1481 1483 1484 1486 1487 1489 1491 1493 1495 1497 1499 1502 1505 1507 1510 1512 1515 1518 1522 1525 1527 1530
1442 1444 1445 1447 1450 1452 1454 1456 1458 1460 1462 1464 1465 1467 1469 1471 1473 1475 1477 1479 1480 1482 1484 1486 1487 1489 1490 1492 1494 1496 1498 1500 1502 1504 1507 1510 1512 1514 1517 1520 1523 1526 1528 1531
1440 1442 1445 1447 1449 1452 1454 1456 1459 1461 1463 1465 1467 1469 1471 1473 1476 1478 1479 1481 1484 1485 1487 1489 1491 1492 1494 1495 1497 1499 1501 1503 1505 1507 1510 1512 1514 1516 1519 1521 1524 1527 1529 1531
1441 1443 1446 1448 1450 1453 1455 1458 1460 1462 1464 1467 1470 1472 1474 1476 1479 1481 1482 1484 1486 1488 1490 1492 1494 1495 1496 1498 1500 1502 1504 1505 1507 1509 1512 1514 1516 1518 1520 1522 1525 1527 1529 1531
1442 1445 1447 1450 1452 1455 1457 1460 1462 1465 1467 1470 1472 1475 1477 1479 1481 1483 1485 1487 1488 1490 1492 1494 1495 1497 1499 1500 1502 1504 1506 1507 1509 1511 1513 1515 1517 1519 1521 1523 1525 1527 1529 1530
1444 1447 1450 1452 1455 1457 1460 1463 1466 1468 1471 1473 1476 1478 1480 1482 1484 1486 1487 1488 1490 1492 1494 1495 1497 1499 1501 1502 1504 1506 1508 1509 1511 1512 1514 1516 1517 1519 1520 1522 1524 1526 1527 1529
1447 1450 1452 1455 1458 1460 1463 1466 1469 1471 1474 1476 1479 1481 1483 1484 1486 1487 1489 1490 1492 1494 1496 1497 1499 1501 1502 1504 1506 1507 1509 1510 1512 1513 1514 1516 1517 1518 1520 1521 1523 1524 1525 1527
1451 1454 1456 1459 1461 1464 1466 1469 1471 1474 1477 1479 1481 1483 1485 1486 1488 1489 1490 1492 1494 1496 1497 1499 1500 1502 1503 1505 1507 1508 1509 1510 1511 1512 1514 1515 1516 1517 1518 1520 1521 1522 1523 1524
1456 1458 1460 1463 1465 1468 1470 1472 1474 1477 1479 1481 1483 1485 1486 1488 1489 1491 1492 1494 1495 1497 1498 1499 1501 1502 1503 1505 1506 1507 1508 1509 1510 1511 1512 1513 1514 1515 1516 1517 1518 1519 1520 1521